Regional Weather Roundup
Issued by NWS

Home | Current Version | Previous Version | Text Only | Print | Product List | Glossary Off
Versions: 1 2 3 4 5 6 7 8 9 10 11 12 13 14 15 16 17 18 19 20 21 22 23 24 25 26 27 28 29 30 31 32 33 34 35 36 37 38 39 40 41 42 43 44 45 46 47 48 49 50

412
ASUS44 KLIX 200210
RWRLA
LOUISIANA WEATHER ROUNDUP
NATIONAL WEATHER SERVICE NEW ORLEANS LA
900 PM CDT FRI SEP 19 2014

NOTE: "FAIR" INDICATES FEW OR NO CLOUDS BELOW 12,000 FEET WITH NO
      SIGNIFICANT WEATHER AND/OR OBSTRUCTIONS TO VISIBILITY.
      SKY/WX - SKY CONDITION AND SIGNIFICANT WEATHER.
      TMP - AIR TEMPERATURE.    DP   - DEWPOINT TEMPERATURE.
      RH  - RELATIVE HUMIDITY.  PRES - PRESSURE.
      HX  - HEAT INDEX.         WCI  - WIND CHILL INDEX.

*  THESE STATIONS ARE NOT NWS OR FAA STATIONS AND ARE NOT UNDER
   NWS QUALITY CONTROL.

LAZ040-048-061>063-065-066-069-200300-
SOUTHEAST LOUISIANA

CITY           SKY/WX    TMP DP  RH WIND       PRES   REMARKS
N.O. AUDUBON     N/A     79  70  74 MISG        N/A
N.O. INTL ARPT CLEAR     80  66  62 E8        29.95R
N.O. LAKEFRONT CLEAR     80  69  69 E13       29.96R
N.O. DOWNTOWN* FAIR      81  66  61 E7        29.96R
SLIDELL        CLEAR     74  71  91 N3        29.96R
BATON ROUGE    CLEAR     75  72  90 CALM      29.96R
BOOTHVILLE     CLEAR     81  71  71 E13       29.94R
BELLE CHASSE   MOCLDY    76  68  76 E7        29.95R
BOGALUSA*      FAIR      74  70  88 CALM      29.99R
GALLIANO*      NOT AVBL
NEW ROADS*     FAIR      77  70  78 E3        29.96S
GONZALES*      FAIR      73  73 100 CALM      29.95S
HAMMOND*       CLEAR     75  70  83 CALM      29.98R
HOUMA*         CLEAR     74  66  77 NE5       29.94S
PORT FOURCHON* PTCLDY    81  70  69 E13G20    29.96R

$$

LAZ041-044-053-054-200300-
SOUTHWEST LOUISIANA

CITY           SKY/WX    TMP DP  RH WIND       PRES   REMARKS
LAKE CHARLES   PTCLDY    79  72  79 E3        29.92R
LAFAYETTE      CLEAR     76  72  87 E3        29.95R
PATTERSON      CLEAR     75  70  83 E6        29.98R
SALT POINT       N/A     78  73  84 CALM      29.94R
NEW IBERIA     CLEAR     77  71  82 E3        29.96R
CHENAULT AIRPK PTCLDY    77  72  83 E6        29.93R

$$

LAZ027-028-200300-
CENTRAL LOUISIANA

CITY           SKY/WX    TMP DP  RH WIND       PRES   REMARKS
FORT POLK      CLEAR     76  71  85 E3        29.95R
ALEXANDRIA INT CLEAR     77  71  82 E3        29.94R
ALEXANDRIA     CLEAR     75  72  90 CALM      29.96R

$$

LAZ001-002-200300-
NORTHWEST LOUISIANA

CITY           SKY/WX    TMP DP  RH WIND       PRES   REMARKS
SHREVEPORT     CLEAR     79  68  69 E6        29.94R
BARKSDALE AFB  CLEAR     77  68  73 E6        29.95R
DTN SHREVEPORT CLEAR     78  69  73 NE3       29.95R

$$

LAZ014-016-200300-
NORTHEAST LOUISIANA

CITY           SKY/WX    TMP DP  RH WIND       PRES   REMARKS
MONROE         CLEAR     78  71  79 CALM      29.97R
TALLULAH       CLEAR     73  70  90 CALM      29.97R

$$




USA.gov is the U.S. government's official web portal to all federal, state and local government web resources and services.